868  
ASUS41 KBTV 290510  
RWRBTV  
VERMONT REGIONAL WEATHER ROUNDUP  
NATIONAL WEATHER SERVICE BURLINGTON VT  
100 AM EDT WED MAR 29 2017  
 
NOTE: "FAIR" INDICATES FEW OR NO CLOUDS BELOW 12,000 FEET WITH NO  
SIGNIFICANT WEATHER AND/OR S TO VISIBILITY
.  
 
* THESE REPORTS ARE NOT UNDER NWS QUALITY CONTROL AND/OR DO NOT  
REPORT WEATHER SUCH AS PRECIPITATION AND FOG.
 
 
VTZ001>019-290600-  
_____VERMONT_____  
 
 
CITY SKY/WX TMP DP RH WIND PRES REMARKS
 
BURLINGTON MIX PCPN 37 34 89 N5 30.06R  
MONTPELIER CLOUDY 35 35 100 CALM 30.04R  
MORRISVILLE CLOUDY 32 32 100 CALM 30.04R  
ST. JOHNSBURY* N/A 36 35 96 MISG 29.99R  
LYNDONVILLE* CLOUDY 35 33 93 W7 30.01R WCI 29  
MIDDLEBURY* CLOUDY 34 34 98 CALM 30.04R FOG  
RUTLAND* MIX PCPN 35 34 96 N6 30.01S FOG WCI 30  
SPRINGFIELD CLOUDY 37 34 89 N6 29.98S FOG  
HIGHGATE* CLOUDY 34 34 100 CALM 30.07R FOG  
NEWPORT* DRIZZLE 33 32 98 CALM 30.02S  
BENNINGTON CLOUDY 39 37 92 W3 29.97S  
SUTTON* N/A 34 N/A N/A MISG N/A  
 
_____LAKE CHAMPLAIN_____  
 
 
CITY SKY/WX TMP DP RH WIND PRES REMARKS
 
 

 
 
NYZ007-026>031-035-052-083-087-290600-  
_____NORTHERN NEW YORK_____  
 
 
CITY SKY/WX TMP DP RH WIND PRES REMARKS
 
PLATTSBURGH LGT RAIN 36 35 96 NW3 30.07R VSB 1/2  
SARANAC LAKE CLOUDY 35 35 100 N3 30.01S  
MASSENA CLOUDY 40 31 70 N7 30.12R  
POTSDAM* CLOUDY 37 36 93 CALM 30.10R  
WATERTOWN CLOUDY 38 35 89 CALM 30.11R  
FT DRUM MOCLDY 36 33 89 NW5 30.09R  
ALBANY CLOUDY 40 37 89 N6 30.02S  
GLENS FALLS CLOUDY 39 36 89 N5 30.03R  
 

 
NHZ002-005-011-290600-  
_____NEW HAMPSHIRE_____  
 
 
CITY SKY/WX TMP DP RH WIND PRES REMARKS
 
LEBANON CLOUDY 35 35 100 CALM 29.98S FOG  
KEENE CLOUDY 36 36 100 CALM 29.96F FOG  
MT WASHINGTON FOG 28 28 100 NW30 N/A VSB 1/16WCI 13  
PLYMOUTH MIX PCPN 34 33 99 CALM 29.97S VSB 3/4  
WHITEFIELD CLOUDY 37 34 89 NE3 29.98R  
 

 
 
_____REGIONAL QUEBEC LOCATIONS_____  
 
 
CITY SKY/WX TMP DP RH WIND PRES REMARKS
 
MONTREAL CLOUDY 37 34 87 N8 30.09S WCI 31  
QUEBEC CITY LGT SNOW 30 28 93 E2 30.07R FOG  
SHERBROOKE CLOUDY 34 34 100 NW5 30.01S WCI 30  
 
_____REGIONAL ONTARIO LOCATIONS_____  
 
 
CITY SKY/WX TMP DP RH WIND PRES REMARKS
 
OTTAWA PTCLDY 37 30 75 N7 30.13R  
 
______KEY______  
VSB - VISIBILITY IN MILES  
WCI - WIND CHILL INDEX  
HX - HEAT INDEX  

 
NNNN  
 
 
CLICK HERE TO GO TO PREVIOUS BULLETINS.

The Nexlab VT Page
The Nexlab NY Page Main Text Page